Volver al catálogo

STARLINK-32884

ActivoComunicacionesVLEO
NORAD 62953·PAYLOAD·🇺🇸 United States

Lanzado Feb 11, 2025 desde Vandenberg Space Force Base

Loading…

Próximos Pases (próximas 24 horas)

TLE

ActualizadoSource: CelesTrak SupGP

Época: Sep 15, 2026, 02:41 UTC

1 62953C 25029F   26258.11229167 -.00030200  00000+0 -89251-3 0  2587
2 62953  53.1579  66.6767 0000939  87.2331 238.5254 15.34397452    13

Sigue STARLINK-32884 en tiempo real con AllMySat

Download on the App Store